FW3157 Weather Reports


Display with metric or nautical units.
time (UTC)temp
F
wind
direction
speed
MPH
gust
MPH
rain 1hr
in
rain 24hr
in
rain mn
in
humidity
%
barometer
mb
20191014115247 77 227 2.0 4.0 0.00 0.00 0.00 62 1020.2
20191014114747 77 284 2.0 3.0 0.00 0.00 0.00 63 1020.2
20191014114246 77 225 2.0 4.0 0.00 0.00 0.00 65 1020.3
20191014113744 77 226 2.0 6.0 0.00 0.00 0.00 65 1020.3
20191014113245 77 182 2.0 6.0 0.00 0.00 0.00 65 1020.3
20191014112745 77 261 2.0 5.0 0.00 0.00 0.00 64 1020.5
20191014112244 77 282 2.0 5.0 0.00 0.00 0.00 65 1020.5
20191014111744 76 305 2.0 4.0 0.00 0.00 0.00 60 1020.6
20191014111245 76 296 2.0 4.0 0.00 0.00 0.00 64 1020.6
20191014110745 76 273 2.0 4.0 0.00 0.00 0.00 65 1020.7
20191014110245 76 276 2.0 4.0 0.00 0.00 0.00 62 1020.8
20191014105745 76 241 2.0 4.0 0.00 0.00 0.00 63 1020.8
20191014105244 76 250 2.0 4.0 0.00 0.00 0.00 64 1020.9
20191014104742 76 278 1.0 4.0 0.00 0.00 0.00 64 1021.0
20191014104242 76 233 1.0 4.0 0.00 0.00 0.00 62 1021.1
20191014103742 76 243 1.0 3.0 0.00 0.00 0.00 65 1021.1
20191014103243 76 265 1.0 4.0 0.00 0.00 0.00 64 1021.2
20191014102742 76 293 1.0 4.0 0.00 0.00 0.00 67 1021.2
20191014102242 75 256 1.0 4.0 0.00 0.00 0.00 67 1021.2
20191014101742 74 236 2.0 5.0 0.00 0.00 0.00 69 1021.4
20191014101242 74 225 1.0 5.0 0.00 0.00 0.00 69 1021.4
20191014100742 74 345 1.0 3.0 0.00 0.00 0.00 71 1021.4
20191014100242 74 240 2.0 3.0 0.00 0.00 0.00 71 1021.5
20191014095740 73 295 2.0 4.0 0.00 0.00 0.00 69 1021.5
20191014095240 73 283 2.0 4.0 0.00 0.00 0.00 71 1021.6
20191014094740 73 284 1.0 4.0 0.00 0.00 0.00 72 1021.7
20191014094240 73 238 2.0 4.0 0.00 0.00 0.00 71 1021.7
20191014093742 72 274 2.0 4.0 0.00 0.00 0.00 73 1021.7
20191014093240 72 309 2.0 5.0 0.00 0.00 0.00 73 1021.8
20191014092740 72 219 2.0 5.0 0.00 0.00 0.00 73 1021.8
20191014092240 71 297 1.0 4.0 0.00 0.00 0.00 74 1021.8
20191014091738 71 281 0.0 3.0 0.00 0.00 0.00 74 1021.8
20191014091237 71 311 1.0 3.0 0.00 0.00 0.00 75 1021.9
20191014090738 71 293 1.0 3.0 0.00 0.00 0.00 76 1021.9
20191014090238 71 250 1.0 3.0 0.00 0.00 0.00 76 1021.9
20191014085739 70 281 0.0 3.0 0.00 0.00 0.00 77 1021.9
20191014085238 70 293 0.0 3.0 0.00 0.00 0.00 77 1022.0
20191014084735 70 262 0.0 2.0 0.00 0.00 0.00 78 1022.0
20191014084236 69 282 0.0 3.0 0.00 0.00 0.00 80 1022.0
20191014083737 69 279 0.0 3.0 0.00 0.00 0.00 80 1022.0
20191014083236 68 276 0.0 3.0 0.00 0.00 0.00 81 1022.1
20191014082734 68 285 1.0 3.0 0.00 0.00 0.00 82 1022.1
20191014082234 68 283 1.0 4.0 0.00 0.00 0.00 83 1022.1
20191014081734 67 305 2.0 4.0 0.00 0.00 0.00 83 1022.1
20191014081235 67 276 1.0 4.0 0.00 0.00 0.00 83 1022.2
20191014080734 67 249 1.0 4.0 0.00 0.00 0.00 83 1022.1
20191014080234 67 294 1.0 4.0 0.00 0.00 0.00 83 1022.1
20191014075733 67 298 1.0 4.0 0.00 0.00 0.00 83 1022.1
20191014075234 67 306 2.0 4.0 0.00 0.00 0.00 83 1022.1
20191014074733 67 316 1.0 4.0 0.00 0.00 0.00 83 1022.1
20191014074231 67 273 1.0 4.0 0.00 0.00 0.00 83 1022.1
20191014073732 67 288 1.0 4.0 0.00 0.00 0.00 83 1022.1
20191014073232 67 288 1.0 3.0 0.00 0.00 0.00 83 1022.1
20191014072731 66 241 1.0 3.0 0.00 0.00 0.00 85 1022.2
20191014072232 66 250 1.0 3.0 0.00 0.00 0.00 84 1022.2
20191014071731 66 282 2.0 4.0 0.00 0.00 0.00 85 1022.2
20191014071230 66 291 2.0 4.0 0.00 0.00 0.00 86 1022.2
20191014070730 66 326 1.0 3.0 0.00 0.00 0.00 84 1022.2
20191014070231 66 240 1.0 2.0 0.00 0.00 0.00 85 1022.2
20191014065728 66 243 1.0 2.0 0.00 0.00 0.00 85 1022.1
20191014065228 66 238 0.0 2.0 0.00 0.00 0.00 86 1022.1
20191014064728 66 293 0.0 2.0 0.00 0.00 0.00 86 1022.1
20191014064228 66 250 0.0 2.0 0.00 0.00 0.00 86 1022.1
20191014063728 66 279 0.0 2.0 0.00 0.00 0.00 87 1022.1
20191014063227 65 266 0.0 1.0 0.00 0.00 0.00 88 1022.1
20191014062728 65 270 0.0 1.0 0.00 0.00 0.00 89 1022.1
20191014062228 65 270 0.0 1.0 0.00 0.00 0.00 88 1021.9
20191014061728 65 269 0.0 1.0 0.00 0.00 0.00 88 1022.0
20191014061227 65 267 0.0 1.0 0.00 0.00 0.00 88 1021.9
20191014060728 65 260 0.0 1.0 0.00 0.00 0.00 88 1021.9
20191014060225 65 276 0.0 1.0 0.00 0.00 0.00 89 1022.0
20191014055725 65 276 0.0 0.0 0.00 0.00 0.00 90 1021.9
20191014055226 64 276 0.0 0.0 0.00 0.00 0.00 91 1021.9
20191014054726 63 276 0.0 1.0 0.00 0.00 0.00 91 1021.8
20191014054226 63 277 0.0 1.0 0.00 0.00 0.00 92 1021.8
20191014053726 63 278 0.0 1.0 0.00 0.00 0.00 92 1021.8
20191014053226 63 278 0.0 1.0 0.00 0.00 0.00 92 1021.8
20191014052726 63 277 0.0 1.0 0.00 0.00 0.00 92 1021.8
20191014052225 63 276 0.0 1.0 0.00 0.00 0.00 92 1021.7
20191014051726 63 276 0.0 1.0 0.00 0.00 0.00 92 1021.6
20191014051226 63 276 0.0 1.0 0.00 0.00 0.00 92 1021.5
20191014050725 62 277 0.0 2.0 0.00 0.00 0.00 92 1021.5
20191014050226 62 279 0.0 2.0 0.00 0.00 0.00 92 1021.5
20191014045726 62 274 1.0 3.0 0.00 0.00 0.00 92 1021.5
20191014045226 62 287 1.0 3.0 0.00 0.00 0.00 91 1021.4
20191014044727 62 101 0.0 0.0 0.00 0.00 0.00 89 1021.4
20191014044226 62 101 0.0 0.0 0.00 0.00 0.00 90 1021.5
20191014043726 62 101 0.0 0.0 0.00 0.00 0.00 90 1021.4
20191014043225 62 101 0.0 0.0 0.00 0.00 0.00 89 1021.5
20191014042724 62 101 0.0 0.0 0.00 0.00 0.00 89 1021.5
20191014042224 63 101 0.0 0.0 0.00 0.00 0.00 88 1021.5
20191014041724 63 101 0.0 0.0 0.00 0.00 0.00 89 1021.4
20191014041223 63 101 0.0 0.0 0.00 0.00 0.00 88 1021.4
20191014040723 63 101 0.0 0.0 0.00 0.00 0.00 88 1021.5
20191014040223 63 101 0.0 1.0 0.00 0.00 0.00 88 1021.4
20191014035723 64 101 0.0 1.0 0.00 0.00 0.00 88 1021.5
20191014035221 64 101 0.0 1.0 0.00 0.00 0.00 88 1021.5
20191014034721 64 101 0.0 0.0 0.00 0.00 0.00 88 1021.5
20191014034222 64 101 0.0 0.0 0.00 0.00 0.00 89 1021.5
20191014033721 64 101 0.0 1.0 0.00 0.00 0.00 89 1021.5
20191014033219 64 101 0.0 1.0 0.00 0.00 0.00 89 1021.5
20191014032720 64 103 0.0 1.0 0.00 0.00 0.00 89 1021.5
20191014032220 64 105 0.0 1.0 0.00 0.00 0.00 89 1021.4
20191014031719 64 105 0.0 1.0 0.00 0.00 0.00 89 1021.5
20191014031220 64 105 0.0 1.0 0.00 0.00 0.00 89 1021.5
20191014030720 64 105 0.0 1.0 0.00 0.00 0.00 89 1021.5
20191014030217 64 105 0.0 0.0 0.00 0.00 0.00 89 1021.6
20191014025717 64 105 0.0 0.0 0.00 0.00 0.00 90 1021.6
20191014025217 64 105 0.0 0.0 0.00 0.00 0.00 89 1021.6
20191014024717 64 105 0.0 0.0 0.00 0.00 0.00 89 1021.6
20191014024215 64 105 0.0 0.0 0.00 0.00 0.00 88 1021.6
20191014023715 64 105 0.0 0.0 0.00 0.00 0.00 88 1021.6
20191014023215 64 105 0.0 0.0 0.00 0.00 0.00 88 1021.6
20191014022715 64 105 0.0 0.0 0.00 0.00 0.00 89 1021.6
20191014022215 63 105 0.0 0.0 0.00 0.00 0.00 89 1021.6
20191014021715 63 105 0.0 0.0 0.00 0.00 0.00 88 1021.6
20191014021216 63 105 0.0 0.0 0.00 0.00 0.00 88 1021.6
20191014020715 63 105 0.0 0.0 0.00 0.00 0.00 88 1021.7
20191014020215 63 105 0.0 0.0 0.00 0.00 0.00 88 1021.7
20191014015717 64 105 0.0 0.0 0.00 0.00 0.00 87 1021.6
20191014015213 64 105 0.0 0.0 0.00 0.00 0.00 87 1021.7
20191014014713 64 105 0.0 1.0 0.00 0.00 0.00 87 1021.7
20191014014213 64 105 0.0 1.0 0.00 0.00 0.00 87 1021.7
20191014013713 64 105 0.0 0.0 0.00 0.00 0.00 87 1021.7
20191014013214 64 105 0.0 0.0 0.00 0.00 0.00 86 1021.6
20191014012713 64 105 0.0 1.0 0.00 0.00 0.00 86 1021.7
20191014012213 64 105 0.0 1.0 0.00 0.00 0.00 86 1021.6
20191014011713 64 105 0.0 1.0 0.00 0.00 0.00 86 1021.6
20191014011214 64 80 0.0 1.0 0.00 0.00 0.00 86 1021.6
20191014010712 64 80 0.0 0.0 0.00 0.00 0.00 87 1021.6
20191014010211 64 80 0.0 1.0 0.00 0.00 0.00 86 1021.6
20191014005712 64 80 0.0 1.0 0.00 0.00 0.00 86 1021.6
20191014005211 64 80 0.0 0.0 0.00 0.00 0.00 86 1021.6
20191014004711 65 80 0.0 0.0 0.00 0.00 0.00 86 1021.6
20191014004211 65 80 0.0 0.0 0.00 0.00 0.00 86 1021.6
20191014003711 65 80 0.0 0.0 0.00 0.00 0.00 86 1021.7
20191014003211 64 80 0.0 0.0 0.00 0.00 0.00 86 1021.6
20191014002711 64 80 0.0 0.0 0.00 0.00 0.00 86 1021.7
20191014002211 65 80 0.0 0.0 0.00 0.00 0.00 85 1021.7
20191014001711 65 80 0.0 0.0 0.00 0.00 0.00 85 1021.7
20191014001209 65 80 0.0 0.0 0.00 0.00 0.00 85 1021.7
20191014000709 65 80 0.0 0.0 0.00 0.00 0.00 85 1021.8
20191014000209 65 80 0.0 0.0 0.00 0.00 0.00 85 1021.9
20191013235709 65 80 0.0 0.0 0.00 0.00 0.00 85 1021.9
20191013235212 65 80 0.0 1.0 0.00 0.00 0.00 85 1021.9
20191013234710 65 80 0.0 1.0 0.00 0.00 0.00 85 1021.9
20191013234209 65 80 0.0 1.0 0.00 0.00 0.00 85 1022.0
20191013233710 65 80 0.0 1.0 0.00 0.00 0.00 84 1021.9
20191013233209 65 80 0.0 1.0 0.00 0.00 0.00 84 1022.0
20191013232709 65 80 0.0 1.0 0.00 0.00 0.00 84 1022.0
20191013232209 65 79 0.0 1.0 0.00 0.00 0.00 85 1022.0
20191013231709 65 79 0.0 1.0 0.00 0.00 0.00 85 1022.0
20191013231209 65 79 0.0 1.0 0.00 0.00 0.00 84 1022.0
20191013230709 65 79 0.0 1.0 0.00 0.00 0.00 85 1022.0
20191013230209 65 79 0.0 1.0 0.00 0.00 0.00 85 1022.1
20191013225709 65 79 0.0 1.0 0.00 0.00 0.00 84 1022.1
20191013225209 65 79 0.0 1.0 0.00 0.00 0.00 84 1022.1
20191013224709 65 79 0.0 1.0 0.00 0.00 0.00 84 1022.1
20191013224209 66 79 0.0 0.0 0.00 0.00 0.00 84 1022.1
20191013223706 66 79 0.0 0.0 0.00 0.00 0.00 85 1022.1
20191013223207 66 79 0.0 0.0 0.00 0.00 0.00 85 1022.1
20191013222707 65 79 0.0 0.0 0.00 0.00 0.00 85 1022.1
20191013222207 65 79 0.0 0.0 0.00 0.00 0.00 86 1022.1
20191013221706 65 79 0.0 0.0 0.00 0.00 0.00 85 1022.1
20191013221207 65 79 0.0 0.0 0.00 0.00 0.00 85 1022.1
20191013220707 66 79 0.0 0.0 0.00 0.00 0.00 85 1022.1
20191013220204 66 79 0.0 0.0 0.00 0.00 0.00 84 1022.1
20191013215705 66 79 0.0 0.0 0.00 0.00 0.00 83 1022.1
20191013215205 66 79 0.0 0.0 0.00 0.00 0.00 83 1022.1
20191013214703 67 79 0.0 0.0 0.00 0.00 0.00 82 1022.1
20191013214203 67 79 0.0 0.0 0.00 0.00 0.00 83 1022.1
20191013213703 67 79 0.0 0.0 0.00 0.00 0.00 82 1022.1
20191013213203 67 79 0.0 0.0 0.00 0.00 0.00 83 1022.1
20191013212703 67 79 0.0 0.0 0.00 0.00 0.00 83 1022.1
20191013212203 67 79 0.0 0.0 0.00 0.00 0.00 83 1022.2
20191013211701 67 79 0.0 0.0 0.00 0.00 0.00 83 1022.2
20191013211201 67 79 0.0 0.0 0.00 0.00 0.00 82 1022.2
20191013210701 67 79 0.0 0.0 0.00 0.00 0.00 82 1022.3
20191013210200 67 79 0.0 0.0 0.00 0.00 0.00 81 1022.3
20191013205659 67 79 0.0 0.0 0.00 0.00 0.00 81 1022.3
20191013205158 67 79 0.0 0.0 0.00 0.00 0.00 81 1022.3
20191013204659 67 79 0.0 0.0 0.00 0.00 0.00 80 1022.3
20191013204157 68 79 1.0 2.0 0.00 0.00 0.00 80 1022.3
20191013203657 68 79 1.0 2.0 0.00 0.00 0.00 80 1022.3
20191013203157 68 83 1.0 2.0 0.00 0.00 0.00 80 1022.4
20191013202657 68 107 1.0 2.0 0.00 0.00 0.00 80 1022.3
20191013202157 68 103 0.0 2.0 0.00 0.00 0.00 80 1022.3
20191013201658 68 96 0.0 1.0 0.00 0.00 0.00 80 1022.3
20191013201157 68 110 1.0 2.0 0.00 0.00 0.00 80 1022.3
20191013200657 68 108 1.0 2.0 0.00 0.00 0.00 80 1022.3
20191013200157 68 102 1.0 2.0 0.00 0.00 0.00 80 1022.3
20191013195656 68 113 0.0 1.0 0.00 0.00 0.00 80 1022.3
20191013195157 68 102 0.0 1.0 0.00 0.00 0.00 80 1022.3
20191013194657 68 107 0.0 1.0 0.00 0.00 0.00 80 1022.3
20191013194157 68 107 0.0 1.0 0.00 0.00 0.00 80 1022.2
20191013193657 68 113 0.0 1.0 0.00 0.00 0.00 80 1022.2
20191013193156 68 113 0.0 1.0 0.00 0.00 0.00 79 1022.2
20191013192657 68 117 0.0 1.0 0.00 0.00 0.00 79 1022.3
20191013192158 68 99 1.0 2.0 0.00 0.00 0.00 79 1022.2
20191013191657 68 100 1.0 2.0 0.00 0.00 0.00 79 1022.2
20191013191157 68 117 0.0 1.0 0.00 0.00 0.00 79 1022.2
20191013190656 68 102 0.0 1.0 0.00 0.00 0.00 80 1022.2
20191013190157 68 109 1.0 2.0 0.00 0.00 0.00 80 1022.2
20191013185657 68 83 1.0 2.0 0.00 0.00 0.00 80 1022.1
20191013185155 69 89 0.0 2.0 0.00 0.00 0.00 80 1022.1
20191013184653 69 113 0.0 1.0 0.00 0.00 0.00 80 1022.1
20191013184153 69 95 0.0 1.0 0.00 0.00 0.00 81 1022.1
20191013183653 68 95 0.0 1.0 0.00 0.00 0.00 81 1022.1
20191013183153 68 95 0.0 0.0 0.00 0.00 0.00 81 1022.2
20191013182652 68 95 0.0 0.0 0.00 0.00 0.00 81 1022.1
20191013182153 69 95 0.0 1.0 0.00 0.00 0.00 80 1022.1
20191013181653 69 95 0.0 1.0 0.00 0.00 0.00 80 1022.1
20191013181153 69 95 0.0 2.0 0.00 0.00 0.00 80 1022.1
20191013180653 69 95 0.0 2.0 0.00 0.00 0.00 80 1022.0
20191013180153 69 110 0.0 1.0 0.00 0.00 0.00 80 1022.0
20191013175653 69 110 0.0 0.0 0.00 0.00 0.00 80 1022.0
20191013175152 69 110 0.0 1.0 0.00 0.00 0.00 80 1022.0
20191013174652 69 110 0.0 1.0 0.00 0.00 0.00 80 1022.0
20191013174152 69 110 0.0 1.0 0.00 0.00 0.00 79 1022.0
20191013173652 70 110 0.0 1.0 0.00 0.00 0.00 79 1021.9
20191013173152 70 110 0.0 1.0 0.00 0.00 0.00 78 1021.9
20191013172653 70 113 0.0 1.0 0.00 0.00 0.00 78 1021.8
20191013172152 70 113 0.0 1.0 0.00 0.00 0.00 79 1021.9
20191013171652 70 148 0.0 0.0 0.00 0.00 0.00 78 1021.9
20191013171152 70 148 0.0 1.0 0.00 0.00 0.00 77 1021.8
20191013170653 71 148 0.0 2.0 0.00 0.00 0.00 76 1021.8
20191013170153 71 143 0.0 2.0 0.00 0.00 0.00 76 1021.8
20191013165653 71 146 0.0 2.0 0.00 0.00 0.00 76 1021.7
20191013165153 71 117 0.0 1.0 0.00 0.00 0.00 76 1021.6
20191013164650 71 153 0.0 2.0 0.00 0.00 0.00 76 1021.7
20191013164151 71 140 0.0 2.0 0.00 0.00 0.00 76 1021.7
20191013163650 71 164 0.0 2.0 0.00 0.00 0.00 76 1021.7
20191013163151 71 137 0.0 2.0 0.00 0.00 0.00 76 1021.7
20191013162651 71 147 0.0 2.0 0.00 0.00 0.00 76 1021.6
20191013162150 71 153 0.0 3.0 0.00 0.00 0.00 76 1021.6
20191013161650 72 264 0.0 3.0 0.00 0.00 0.00 75 1021.6
20191013161149 72 154 0.0 3.0 0.00 0.00 0.00 75 1021.6
20191013160649 72 126 0.0 3.0 0.00 0.00 0.00 76 1021.6
20191013160148 72 138 0.0 3.0 0.00 0.00 0.00 76 1021.5
20191013155649 72 224 0.0 2.0 0.00 0.00 0.00 76 1021.4
20191013155148 73 184 0.0 2.0 0.00 0.00 0.00 75 1021.5
20191013154649 73 223 1.0 5.0 0.00 0.00 0.00 74 1021.4
20191013154147 73 211 1.0 5.0 0.00 0.00 0.00 74 1021.4
20191013153646 74 221 1.0 4.0 0.00 0.00 0.00 73 1021.3
20191013153146 74 183 1.0 4.0 0.00 0.00 0.00 73 1021.3
20191013152647 74 253 2.0 4.0 0.00 0.00 0.00 72 1021.3
20191013152146 74 169 2.0 5.0 0.00 0.00 0.00 72 1021.3
20191013151644 74 200 3.0 6.0 0.00 0.00 0.00 71 1021.3
20191013151143 74 215 3.0 6.0 0.00 0.00 0.00 71 1021.3
20191013150643 75 221 3.0 5.0 0.00 0.00 0.00 72 1021.3
20191013150142 75 216 3.0 7.0 0.00 0.00 0.00 70 1021.2
20191013145642 75 232 2.0 7.0 0.00 0.00 0.00 70 1021.2
20191013145142 75 207 2.0 5.0 0.00 0.00 0.00 69 1021.2
20191013144643 75 255 3.0 7.0 0.00 0.00 0.00 70 1021.2
20191013144142 75 218 3.0 7.0 0.00 0.00 0.00 69 1021.2
20191013143642 76 233 3.0 7.0 0.00 0.00 0.00 68 1021.3
20191013143141 76 211 2.0 5.0 0.00 0.00 0.00 68 1021.3
20191013142640 76 228 3.0 6.0 0.00 0.00 0.00 68 1021.3
20191013142139 76 231 4.0 7.0 0.00 0.00 0.00 68 1021.3
20191013141639 76 184 4.0 8.0 0.00 0.00 0.00 67 1021.3
20191013141138 76 230 4.0 8.0 0.00 0.00 0.00 67 1021.4
20191013140639 76 202 4.0 8.0 0.00 0.00 0.00 66 1021.3
20191013140139 76 209 3.0 8.0 0.00 0.00 0.00 65 1021.3
20191013135639 76 205 3.0 8.0 0.00 0.00 0.00 66 1021.3
20191013135139 76 224 4.0 8.0 0.00 0.00 0.00 65 1021.3
20191013134638 76 214 4.0 8.0 0.00 0.00 0.00 65 1021.3
20191013134137 76 224 3.0 7.0 0.00 0.00 0.00 64 1021.3
20191013133637 76 243 3.0 7.0 0.00 0.00 0.00 64 1021.3
20191013133136 76 171 3.0 7.0 0.00 0.00 0.00 65 1021.3
20191013132637 76 246 4.0 8.0 0.00 0.00 0.00 65 1021.2
20191013132136 76 216 4.0 8.0 0.00 0.00 0.00 66 1021.3
20191013131638 76 212 4.0 8.0 0.00 0.00 0.00 66 1021.3
20191013131136 76 212 4.0 8.0 0.00 0.00 0.00 65 1021.3
20191013130637 76 148 3.0 8.0 0.00 0.00 0.00 63 1021.4
20191013130136 77 250 3.0 7.0 0.00 0.00 0.00 62 1021.4
20191013125636 77 243 2.0 7.0 0.00 0.00 0.00 62 1021.4
20191013125134 77 255 2.0 7.0 0.00 0.00 0.00 61 1021.4
20191013124634 76 226 3.0 7.0 0.00 0.00 0.00 61 1021.4
20191013124134 76 181 2.0 6.0 0.00 0.00 0.00 61 1021.4
20191013123635 76 240 2.0 6.0 0.00 0.00 0.00 62 1021.4
20191013123134 76 248 3.0 6.0 0.00 0.00 0.00 61 1021.5
20191013122635 76 215 2.0 6.0 0.00 0.00 0.00 60 1021.6
20191013122134 76 213 2.0 6.0 0.00 0.00 0.00 62 1021.6
20191013121636 76 238 2.0 6.0 0.00 0.00 0.00 62 1021.6
20191013121134 76 217 2.0 5.0 0.00 0.00 0.00 62 1021.8
20191013120633 76 265 2.0 6.0 0.00 0.00 0.00 64 1021.8
20191013120132 75 207 2.0 6.0 0.00 0.00 0.00 64 1021.9
20191013115632 75 249 2.0 7.0 0.00 0.00 0.00 64 1021.9